Location: Charlottesville
(38.0290°N, 78.4770°W)
Time: 17:44:28
(UTC-05:00)

Tiangong 1 - Pass Details

Date: 10 October 2017
Orbit: 275 x 302 km, 42.8° (Epoch: 14 December)

Event Time Altitude Azimuth Distance (km) Brightness Sun altitude
Rises 19:05:44 0° 277° (W) 2,090 6.9 -5.3°
Reaches altitude 10° 19:07:54 10° 289° (WNW) 1,242 4.9 -5.7°
Maximum altitude 19:10:24 30° 353° (N) 609 2.1 -6.2°
Drops below altitude 10° 19:12:52 10° 58° (ENE) 1,209 3.0 -6.7°
Enters shadow 19:13:18 - 62° (ENE) 1,374 3.3 -6.8°
